Tracking 19564 objects as of 19-Mar-2019
HD Live streaming from Space Station
objects crossing your sky now

SKYSAT C12

Track SKYSAT C12 now!
10-day predictions


NORAD ID: 43797
Int'l Code: 2018-099AR
Perigee: 577.9 km
Apogee: 596.1 km
Inclination: 97.8 °
Period: 96.3 minutes
Semi major axis: 6957 km
RCS: Unknown
Launch date: December 3, 2018
Source: United States (US)
Launch site: AIR FORCE WESTERN TEST RANGE (AFWTR)
aabbcc
Your satellite tracking list
Your tracking list is empty




NASA's NSSDC Master Catalog

Two Line Element Set (TLE):
1 43797U 18099AR  19077.18632463 -.00000233  00000-0 -15615-4 0  9996
2 43797  97.7520 150.3428 0013092 276.7467  83.2264 14.95822444 15597
Source of the keplerian elements: AFSPC